Location: Napier
(39.4830°S, 176.9170°E)
Time: 18:28:30
(UTC+13:00)

CZ-2C R/B - Pass Details

Date: 24 January 2019
Orbit: 785 x 870 km, 98.3° (Epoch: 23 October)

Event Time Altitude Azimuth Distance (km) Brightness Sun altitude
Exits shadow 21:49:20 15° 29° (NNE) 2,115 4.2 -12.8°
Maximum altitude 21:53:48 62° 107° (ESE) 940 2.8 -13.5°
Drops below altitude 10° 21:59:08 10° 186° (S) 2,439 5.8 -14.2°
Sets 22:01:29 0° 189° (S) 3,366 6.6 -14.6°
